BAH9101 OMSJ-OBBI

Flight info

Callsign BAH9101
Flight time 1h 8m
Altitude 26000
Route NABIX P699 ALKAN M556 ORDIG
Aircraft A320/M-SDE3FGHIRWY/LB1

Departure

Time 2026-04-24 06:48
Airport Sharjah International Airport (OMSJ)

Arrival

Time 2026-04-24 07:56
Airport Bahrain International Airport (OBBI)
Time Latitude Longitude Altitude Speed Heading
2026-04-24 06:20 25.32572 55.51136 91 ft 0 kts 115°
2026-04-24 06:36 25.32571 55.51134 89 ft 4 kts 130°
2026-04-24 06:36 25.32579 55.51114 91 ft 4 kts 111°
2026-04-24 06:36 25.32589 55.51087 88 ft 4 kts 112°
2026-04-24 06:37 25.32598 55.51060 91 ft 4 kts 93°
2026-04-24 06:37 25.32598 55.51049 89 ft 4 kts 69°
2026-04-24 06:37 25.32591 55.51038 90 ft 1 kts 36°
2026-04-24 06:37 25.32590 55.51037 90 ft 0 kts 36°
2026-04-24 06:40 25.32593 55.51040 90 ft 3 kts 35°
2026-04-24 06:40 25.32641 55.51080 89 ft 14 kts 35°
2026-04-24 06:41 25.32730 55.51138 87 ft 16 kts 29°
2026-04-24 06:41 25.32810 55.51188 89 ft 0 kts 31°
2026-04-24 06:41 25.32815 55.51192 90 ft 6 kts 33°
2026-04-24 06:41 25.32878 55.51239 88 ft 12 kts 33°
2026-04-24 06:42 25.32956 55.51294 88 ft 14 kts 32°
2026-04-24 06:42 25.33037 55.51364 88 ft 16 kts 60°
2026-04-24 06:42 25.33009 55.51446 89 ft 10 kts 118°
2026-04-24 06:42 25.32979 55.51511 89 ft 9 kts 121°
2026-04-24 06:43 25.32949 55.51566 89 ft 9 kts 121°
2026-04-24 06:43 25.32905 55.51640 91 ft 14 kts 124°
2026-04-24 06:43 25.32840 55.51752 90 ft 21 kts 122°
2026-04-24 06:43 25.32754 55.51903 91 ft 24 kts 121°
2026-04-24 06:44 25.32661 55.52063 93 ft 25 kts 123°
2026-04-24 06:44 25.32566 55.52229 95 ft 26 kts 122°
2026-04-24 06:44 25.32469 55.52399 95 ft 24 kts 123°
2026-04-24 06:44 25.32379 55.52557 97 ft 25 kts 123°
2026-04-24 06:45 25.32288 55.52718 99 ft 26 kts 122°
2026-04-24 06:45 25.32190 55.52886 99 ft 26 kts 122°
2026-04-24 06:45 25.32089 55.53059 100 ft 27 kts 129°
2026-04-24 06:45 25.32006 55.53197 102 ft 0 kts 120°
2026-04-24 06:46 25.31990 55.53227 102 ft 14 kts 120°
2026-04-24 06:46 25.31973 55.53333 102 ft 15 kts 58°
2026-04-24 06:46 25.32059 55.53401 103 ft 16 kts 30°
2026-04-24 06:46 25.32163 55.53384 103 ft 16 kts 302°
2026-04-24 06:47 25.32226 55.53271 102 ft 19 kts 305°
2026-04-24 06:47 25.32343 55.53073 102 ft 60 kts 303°
2026-04-24 06:47 25.32689 55.52475 96 ft 124 kts 303°
2026-04-24 06:47 25.33249 55.51519 207 ft 162 kts 304°
2026-04-24 06:48 25.33836 55.50398 661 ft 173 kts 304°
2026-04-24 06:48 25.34471 55.49276 1407 ft 171 kts 306°
2026-04-24 06:48 25.35122 55.48168 2090 ft 177 kts 306°
2026-04-24 06:48 25.35875 55.46900 2153 ft 219 kts 306°
2026-04-24 06:49 25.36716 55.45464 2137 ft 224 kts 305°
2026-04-24 06:49 25.37551 55.44011 2143 ft 225 kts 304°
2026-04-24 06:49 25.38386 55.42547 2140 ft 225 kts 304°
2026-04-24 06:49 25.39207 55.41101 2137 ft 225 kts 304°
2026-04-24 06:50 25.40038 55.39636 2141 ft 225 kts 304°
2026-04-24 06:50 25.40879 55.38178 2141 ft 225 kts 305°
2026-04-24 06:50 25.41729 55.36733 2142 ft 225 kts 306°
2026-04-24 06:50 25.42585 55.35283 2142 ft 225 kts 306°
2026-04-24 06:51 25.43440 55.33835 2142 ft 225 kts 306°
2026-04-24 06:51 25.44294 55.32387 2140 ft 225 kts 305°
2026-04-24 06:51 25.45145 55.30941 2141 ft 225 kts 305°
2026-04-24 06:51 25.45899 55.29449 2142 ft 226 kts 292°
2026-04-24 06:52 25.46215 55.27688 2148 ft 250 kts 273°
2026-04-24 06:52 25.46181 55.25717 2143 ft 259 kts 270°
2026-04-24 06:52 25.46134 55.23696 2724 ft 264 kts 270°
2026-04-24 06:52 25.46088 55.21658 3727 ft 266 kts 270°
2026-04-24 06:53 25.46044 55.19600 4663 ft 269 kts 270°
2026-04-24 06:53 25.46000 55.17512 5545 ft 275 kts 270°
2026-04-24 06:53 25.45958 55.15383 5901 ft 277 kts 271°
2026-04-24 06:53 25.45917 55.13255 6016 ft 277 kts 271°
2026-04-24 06:54 25.45876 55.11157 6039 ft 276 kts 270°
2026-04-24 06:54 25.45757 55.09035 6042 ft 277 kts 262°
2026-04-24 06:54 25.45178 55.06997 6042 ft 279 kts 245°
2026-04-24 06:54 25.44140 55.05180 6042 ft 281 kts 235°
2026-04-24 06:55 25.42994 55.03432 6042 ft 281 kts 235°
2026-04-24 06:55 25.41851 55.01678 6042 ft 281 kts 235°
2026-04-24 06:55 25.40713 54.99923 6042 ft 281 kts 235°
2026-04-24 06:55 25.39574 54.98167 6042 ft 281 kts 235°
2026-04-24 06:56 25.38452 54.96435 6051 ft 282 kts 236°
2026-04-24 06:56 25.37305 54.94665 6788 ft 284 kts 236°
2026-04-24 06:56 25.36151 54.92884 7713 ft 286 kts 235°
2026-04-24 06:56 25.34946 54.91110 8551 ft 290 kts 230°
2026-04-24 06:57 25.33486 54.89544 9387 ft 295 kts 221°
2026-04-24 06:57 25.31922 54.88059 10193 ft 299 kts 221°
2026-04-24 06:57 25.30854 54.87043 10413 ft 314 kts 221°
2026-04-24 06:57 25.29136 54.85405 10665 ft 337 kts 221°
2026-04-24 06:58 25.27329 54.83680 11223 ft 348 kts 221°
2026-04-24 06:58 25.25484 54.81922 11932 ft 353 kts 221°
2026-04-24 06:58 25.23621 54.80139 12655 ft 356 kts 223°
2026-04-24 06:58 25.21553 54.77311 13582 ft 360 kts 241°
2026-04-24 06:59 25.20821 54.75629 14032 ft 361 kts 250°
2026-04-24 06:59 25.20192 54.72946 14697 ft 363 kts 264°
2026-04-24 06:59 25.20135 54.70192 15340 ft 364 kts 276°
2026-04-24 06:59 25.20314 54.67391 15984 ft 368 kts 275°
2026-04-24 07:00 25.20487 54.64561 16598 ft 371 kts 275°
2026-04-24 07:00 25.20656 54.61710 17215 ft 374 kts 275°
2026-04-24 07:00 25.20874 54.57889 17995 ft 379 kts 275°
2026-04-24 07:00 25.21038 54.54973 18579 ft 382 kts 275°
2026-04-24 07:01 25.21225 54.53003 18956 ft 383 kts 281°
2026-04-24 07:01 25.21858 54.50138 19526 ft 385 kts 287°
2026-04-24 07:01 25.22577 54.47316 20071 ft 389 kts 287°
2026-04-24 07:01 25.23310 54.44428 20624 ft 392 kts 287°
2026-04-24 07:02 25.24046 54.41521 21153 ft 395 kts 287°
2026-04-24 07:02 25.24785 54.38584 21685 ft 398 kts 287°
2026-04-24 07:02 25.25524 54.35630 22197 ft 401 kts 287°
2026-04-24 07:02 25.26270 54.32643 22692 ft 404 kts 287°
2026-04-24 07:03 25.27021 54.29642 23166 ft 407 kts 287°
2026-04-24 07:03 25.27776 54.26615 23629 ft 410 kts 287°
2026-04-24 07:03 25.28520 54.23612 24067 ft 413 kts 287°
2026-04-24 07:03 25.29278 54.20539 24499 ft 415 kts 287°
2026-04-24 07:04 25.30038 54.17454 24912 ft 418 kts 287°
2026-04-24 07:04 25.30805 54.14346 25307 ft 421 kts 287°
2026-04-24 07:04 25.31558 54.11212 25687 ft 423 kts 285°
2026-04-24 07:04 25.32259 54.08044 25982 ft 426 kts 284°
2026-04-24 07:05 25.32922 54.04863 26048 ft 421 kts 284°
2026-04-24 07:05 25.33557 54.01720 26058 ft 418 kts 284°
2026-04-24 07:05 25.34191 53.98592 26051 ft 416 kts 284°
2026-04-24 07:05 25.34829 53.95475 26046 ft 416 kts 284°
2026-04-24 07:06 25.35467 53.92398 26053 ft 416 kts 284°
2026-04-24 07:06 25.36119 53.89283 26057 ft 416 kts 284°
2026-04-24 07:06 25.36776 53.86170 26050 ft 416 kts 284°
2026-04-24 07:06 25.37437 53.83057 26054 ft 416 kts 284°
2026-04-24 07:07 25.38097 53.79946 26047 ft 416 kts 284°
2026-04-24 07:07 25.38757 53.76832 26054 ft 416 kts 284°
2026-04-24 07:07 25.40057 53.70650 26051 ft 416 kts 284°
2026-04-24 07:08 25.40707 53.67537 26049 ft 415 kts 284°
2026-04-24 07:08 25.41358 53.64422 26054 ft 415 kts 284°
2026-04-24 07:08 25.42009 53.61309 26052 ft 415 kts 284°
2026-04-24 07:08 25.42661 53.58198 26045 ft 415 kts 284°
2026-04-24 07:09 25.43311 53.55090 26047 ft 415 kts 284°
2026-04-24 07:09 25.43961 53.51977 26051 ft 415 kts 284°
2026-04-24 07:09 25.44608 53.48862 26051 ft 415 kts 284°
2026-04-24 07:09 25.45254 53.45746 26048 ft 415 kts 284°
2026-04-24 07:10 25.45898 53.42632 26046 ft 415 kts 284°
2026-04-24 07:10 25.46532 53.39562 26043 ft 415 kts 284°
2026-04-24 07:10 25.47176 53.36447 26046 ft 415 kts 284°
2026-04-24 07:10 25.47821 53.33334 26049 ft 415 kts 284°
2026-04-24 07:11 25.48466 53.30222 26043 ft 415 kts 284°
2026-04-24 07:11 25.49111 53.27104 26042 ft 415 kts 284°
2026-04-24 07:11 25.49755 53.23993 26047 ft 415 kts 284°
2026-04-24 07:11 25.50397 53.20881 26044 ft 415 kts 284°
2026-04-24 07:12 25.51034 53.17768 26045 ft 415 kts 284°
2026-04-24 07:12 25.51668 53.14656 26044 ft 414 kts 284°
2026-04-24 07:12 25.52294 53.11588 26036 ft 414 kts 284°
2026-04-24 07:12 25.52930 53.08474 26039 ft 414 kts 284°
2026-04-24 07:13 25.53565 53.05362 26038 ft 414 kts 284°
2026-04-24 07:13 25.54199 53.02252 26042 ft 415 kts 284°
2026-04-24 07:13 25.54832 52.99135 26042 ft 415 kts 284°
2026-04-24 07:13 25.55466 52.96020 26043 ft 415 kts 284°
2026-04-24 07:14 25.56112 52.92907 26042 ft 415 kts 286°
2026-04-24 07:14 25.57065 52.89905 26042 ft 413 kts 296°
2026-04-24 07:14 25.58371 52.87130 26041 ft 412 kts 300°
2026-04-24 07:14 25.59740 52.84341 26040 ft 412 kts 300°
2026-04-24 07:15 25.61105 52.81544 26041 ft 412 kts 300°
2026-04-24 07:15 25.62465 52.78749 26042 ft 412 kts 300°
2026-04-24 07:15 25.63827 52.75950 26047 ft 412 kts 300°
2026-04-24 07:15 25.65189 52.73153 26042 ft 412 kts 300°
2026-04-24 07:16 25.66549 52.70357 26049 ft 412 kts 300°
2026-04-24 07:16 25.67911 52.67559 26049 ft 412 kts 300°
2026-04-24 07:16 25.69253 52.64798 26042 ft 412 kts 300°
2026-04-24 07:16 25.70610 52.62002 26043 ft 412 kts 300°
2026-04-24 07:17 25.71966 52.59205 26042 ft 412 kts 300°
2026-04-24 07:17 25.73321 52.56406 26039 ft 412 kts 300°
2026-04-24 07:17 25.74679 52.53608 26049 ft 412 kts 300°
2026-04-24 07:17 25.76038 52.50811 26039 ft 412 kts 300°
2026-04-24 07:18 25.77383 52.48008 26048 ft 412 kts 299°
2026-04-24 07:18 25.78699 52.45207 25728 ft 407 kts 298°
2026-04-24 07:18 25.79971 52.42460 25192 ft 404 kts 298°
2026-04-24 07:18 25.81239 52.39695 24658 ft 401 kts 298°
2026-04-24 07:19 25.82497 52.36949 24133 ft 397 kts 298°
2026-04-24 07:19 25.83746 52.34228 23617 ft 394 kts 298°
2026-04-24 07:19 25.84992 52.31529 23119 ft 391 kts 298°
2026-04-24 07:19 25.86236 52.28856 22629 ft 388 kts 300°
2026-04-24 07:20 25.87707 52.26368 22150 ft 383 kts 310°
2026-04-24 07:20 25.89470 52.24169 21669 ft 380 kts 314°
2026-04-24 07:20 25.91257 52.22023 21187 ft 377 kts 314°
2026-04-24 07:20 25.93004 52.19919 20716 ft 374 kts 314°
2026-04-24 07:21 25.94761 52.17798 20243 ft 372 kts 314°
2026-04-24 07:21 25.96506 52.15692 19768 ft 369 kts 314°
2026-04-24 07:21 25.98236 52.13599 19296 ft 366 kts 314°
2026-04-24 07:21 25.99956 52.11519 18826 ft 364 kts 314°
2026-04-24 07:22 26.01662 52.09456 18360 ft 361 kts 314°
2026-04-24 07:22 26.03353 52.07405 17900 ft 359 kts 314°
2026-04-24 07:22 26.05033 52.05363 17442 ft 356 kts 314°
2026-04-24 07:22 26.06700 52.03341 16990 ft 354 kts 314°
2026-04-24 07:23 26.08336 52.01358 16548 ft 351 kts 314°
2026-04-24 07:23 26.09984 51.99364 16106 ft 349 kts 314°
2026-04-24 07:23 26.11622 51.97381 15665 ft 347 kts 314°
2026-04-24 07:23 26.13246 51.95411 15233 ft 344 kts 314°
2026-04-24 07:24 26.14860 51.93453 14799 ft 342 kts 314°
2026-04-24 07:24 26.16465 51.91506 14369 ft 340 kts 314°
2026-04-24 07:24 26.18058 51.89573 13934 ft 338 kts 314°
2026-04-24 07:24 26.19642 51.87650 13497 ft 336 kts 314°
2026-04-24 07:25 26.21192 51.85768 13064 ft 333 kts 314°
2026-04-24 07:25 26.22752 51.83871 12621 ft 331 kts 314°
2026-04-24 07:25 26.24281 51.81960 12177 ft 329 kts 310°
2026-04-24 07:25 26.25587 51.79871 11716 ft 328 kts 302°
2026-04-24 07:26 26.26640 51.77619 11265 ft 327 kts 298°
2026-04-24 07:26 26.27645 51.75355 10806 ft 325 kts 298°
2026-04-24 07:26 26.28646 51.73106 10349 ft 323 kts 298°
2026-04-24 07:26 26.29641 51.70873 10081 ft 321 kts 298°
2026-04-24 07:27 26.30609 51.68702 10041 ft 304 kts 298°
2026-04-24 07:27 26.31364 51.67008 10050 ft 292 kts 298°
2026-04-24 07:34 26.31909 51.65783 9905 ft 290 kts 298°
2026-04-24 07:34 26.32797 51.63789 10024 ft 288 kts 298°
2026-04-24 07:35 26.33689 51.61790 10049 ft 288 kts 298°
2026-04-24 07:35 26.34583 51.59790 10061 ft 288 kts 298°
2026-04-24 07:35 26.35362 51.58047 10053 ft 288 kts 298°
2026-04-24 07:35 26.36254 51.56047 10052 ft 288 kts 298°
2026-04-24 07:36 26.37145 51.54046 10052 ft 288 kts 298°
2026-04-24 07:36 26.37981 51.52016 10056 ft 289 kts 292°
2026-04-24 07:36 26.38658 51.49904 10053 ft 289 kts 291°
2026-04-24 07:36 26.39333 51.47792 10053 ft 289 kts 291°
2026-04-24 07:37 26.40009 51.45679 10053 ft 289 kts 291°
2026-04-24 07:37 26.40684 51.43567 10052 ft 289 kts 291°
2026-04-24 07:37 26.41351 51.41481 10052 ft 289 kts 291°
2026-04-24 07:37 26.42025 51.39368 10052 ft 289 kts 291°
2026-04-24 07:38 26.42701 51.37256 10057 ft 289 kts 291°
2026-04-24 07:38 26.43379 51.35142 10053 ft 289 kts 291°
2026-04-24 07:38 26.44053 51.33032 10053 ft 289 kts 291°
2026-04-24 07:38 26.44716 51.30913 10052 ft 290 kts 288°
2026-04-24 07:39 26.45133 51.28710 10052 ft 291 kts 278°
2026-04-24 07:39 26.45201 51.26450 10053 ft 293 kts 268°
2026-04-24 07:39 26.44931 51.24221 10057 ft 294 kts 258°
2026-04-24 07:39 26.44314 51.22040 10053 ft 296 kts 249°
2026-04-24 07:40 26.43521 51.19922 10052 ft 296 kts 249°
2026-04-24 07:40 26.42728 51.17802 10052 ft 296 kts 249°
2026-04-24 07:40 26.41939 51.15684 10052 ft 296 kts 249°
2026-04-24 07:40 26.41154 51.13563 10057 ft 296 kts 249°
2026-04-24 07:41 26.40371 51.11441 10053 ft 296 kts 249°
2026-04-24 07:41 26.39587 51.09317 10052 ft 296 kts 249°
2026-04-24 07:41 26.38802 51.07194 10052 ft 296 kts 249°
2026-04-24 07:41 26.38027 51.05104 10052 ft 296 kts 249°
2026-04-24 07:42 26.37238 51.02985 10053 ft 296 kts 249°
2026-04-24 07:42 26.36450 51.00872 9876 ft 294 kts 249°
2026-04-24 07:42 26.35668 50.98779 9496 ft 292 kts 249°
2026-04-24 07:42 26.34885 50.96687 9117 ft 291 kts 249°
2026-04-24 07:43 26.34107 50.94612 8731 ft 289 kts 249°
2026-04-24 07:43 26.33401 50.92523 8350 ft 286 kts 259°
2026-04-24 07:43 26.33283 50.90344 7972 ft 280 kts 280°
2026-04-24 07:43 26.33850 50.88297 7568 ft 275 kts 300°
2026-04-24 07:44 26.34994 50.86625 7158 ft 270 kts 320°
2026-04-24 07:44 26.36524 50.85507 6761 ft 266 kts 336°
2026-04-24 07:44 26.38147 50.84510 6338 ft 267 kts 326°
2026-04-24 07:44 26.39534 50.83140 5926 ft 267 kts 313°
2026-04-24 07:45 26.40613 50.81457 5519 ft 267 kts 305°
2026-04-24 07:45 26.41525 50.79659 5106 ft 267 kts 292°
2026-04-24 07:45 26.41854 50.77627 4700 ft 269 kts 270°
2026-04-24 07:45 26.41487 50.75589 4284 ft 270 kts 248°
2026-04-24 07:46 26.40475 50.73835 3853 ft 271 kts 226°
2026-04-24 07:46 26.38977 50.72631 3442 ft 270 kts 202°
2026-04-24 07:46 26.37154 50.72290 3024 ft 267 kts 173°
2026-04-24 07:46 26.35432 50.72954 2590 ft 262 kts 143°
2026-04-24 07:47 26.34218 50.74409 2158 ft 256 kts 116°
2026-04-24 07:47 26.33496 50.76214 1730 ft 255 kts 114°
2026-04-24 07:47 26.32598 50.77918 1633 ft 256 kts 120°
2026-04-24 07:47 26.31647 50.79604 1639 ft 257 kts 120°
2026-04-24 07:48 26.30693 50.81290 1641 ft 258 kts 120°
2026-04-24 07:48 26.29760 50.82930 1637 ft 246 kts 120°
2026-04-24 07:48 26.28873 50.84475 1637 ft 228 kts 120°
2026-04-24 07:48 26.28041 50.85918 1639 ft 218 kts 120°
2026-04-24 07:49 26.27228 50.87333 1641 ft 216 kts 120°
2026-04-24 07:49 26.26416 50.88743 1642 ft 214 kts 122°
2026-04-24 07:49 26.25349 50.89808 1637 ft 205 kts 156°
2026-04-24 07:49 26.24016 50.89990 1664 ft 188 kts 190°
2026-04-24 07:50 26.22904 50.89398 1630 ft 170 kts 224°
2026-04-24 07:50 26.22267 50.88364 1633 ft 158 kts 252°
2026-04-24 07:50 26.21876 50.87247 1635 ft 156 kts 251°
2026-04-24 07:50 26.21476 50.86127 1638 ft 155 kts 251°
2026-04-24 07:51 26.21078 50.85012 1628 ft 154 kts 251°
2026-04-24 07:51 26.20682 50.83901 1640 ft 155 kts 251°
2026-04-24 07:51 26.20289 50.82789 1644 ft 154 kts 251°
2026-04-24 07:51 26.19894 50.81676 1646 ft 154 kts 251°
2026-04-24 07:52 26.19498 50.80565 1645 ft 154 kts 251°
2026-04-24 07:52 26.19115 50.79450 1640 ft 154 kts 258°
2026-04-24 07:52 26.18987 50.78286 1642 ft 151 kts 277°
2026-04-24 07:52 26.19210 50.77170 1628 ft 146 kts 304°
2026-04-24 07:53 26.19721 50.76215 1646 ft 146 kts 304°
2026-04-24 07:53 26.20245 50.75247 1644 ft 146 kts 306°
2026-04-24 07:53 26.20781 50.74292 1643 ft 145 kts 306°
2026-04-24 07:53 26.21322 50.73344 1641 ft 146 kts 306°
2026-04-24 07:54 26.21871 50.72390 1554 ft 146 kts 307°
2026-04-24 07:54 26.22418 50.71442 1406 ft 145 kts 307°
2026-04-24 07:54 26.22962 50.70500 1228 ft 144 kts 307°
2026-04-24 07:54 26.23505 50.69560 1043 ft 144 kts 307°
2026-04-24 07:55 26.24047 50.68622 853 ft 144 kts 307°
2026-04-24 07:55 26.24580 50.67701 670 ft 143 kts 306°
2026-04-24 07:55 26.25121 50.66768 481 ft 143 kts 306°
2026-04-24 07:55 26.25660 50.65837 299 ft 143 kts 306°
2026-04-24 07:56 26.26198 50.64909 114 ft 143 kts 305°
2026-04-24 07:56 26.26710 50.64016 15 ft 121 kts 303°
2026-04-24 07:56 26.27073 50.63410 12 ft 60 kts 303°
2026-04-24 07:56 26.27222 50.63073 13 ft 43 kts 291°
2026-04-24 07:57 26.27251 50.62886 15 ft 0 kts 277°
2026-04-24 08:00 26.27253 50.62869 15 ft 0 kts 277°
2026-04-24 08:00 26.27255 50.62834 16 ft 16 kts 274°
2026-04-24 08:00 26.27278 50.62698 17 ft 18 kts 294°
2026-04-24 08:00 26.27334 50.62568 15 ft 20 kts 308°
2026-04-24 08:01 26.27419 50.62440 15 ft 22 kts 304°
2026-04-24 08:01 26.27505 50.62294 14 ft 24 kts 305°
2026-04-24 08:01 26.27597 50.62136 15 ft 25 kts 302°
2026-04-24 08:01 26.27687 50.61982 15 ft 15 kts 304°
2026-04-24 08:02 26.27715 50.61932 15 ft 5 kts 297°
2026-04-24 08:02 26.27721 50.61899 16 ft 4 kts 271°
2026-04-24 08:02 26.27711 50.61859 15 ft 6 kts 240°
2026-04-24 08:02 26.27689 50.61826 15 ft 5 kts 227°
2026-04-24 08:03 26.27661 50.61808 14 ft 5 kts 201°
2026-04-24 08:03 26.27642 50.61807 14 ft 0 kts 177°
2026-04-24 08:03 26.27624 50.61797 14 ft 4 kts 214°
2026-04-24 08:03 26.27588 50.61777 14 ft 12 kts 220°
2026-04-24 08:04 26.27516 50.61773 14 ft 6 kts 176°
2026-04-24 08:04 26.27499 50.61776 14 ft 0 kts 172°
2026-04-24 08:04 26.27521 50.61700 14 ft 0 kts 335°